SCP
0 0 0 0 0 0 0 0 0 0 0 0 0 0 0 0 0 0 0 0 0 0
0 0 0 0 0 0 0 0 0 0 0 0 0 0 0 0 0 0 0 0 0 0
0 0 0 0 0 0 0 0 0 0 0 0 0 0 0 0 0 0 0 0 0 0
0 0 0 0 0 0 0 0 0 0 0 0 0 0 0 0 0 0 0 0 0 0
0 0 0 0 0 0 0 0 0 0 0 0 0 0 0 0 0 0 0 0 0 0
0 0 0 0 0 0 0 0 0 0 0 0 0 0 0 0 0 0 0 0 0 0
0 0 0 0 0 0 0 0 0 0 0 0 0 0 0 0 0 0 0 0 0 0
0 0 0 0 0 0 0 0 0 0 0 0 0 0 0 0 0 0 0 0 0 0
0 0 0 0 0 0 0 0 0 0 0 0 0 0 0 0 0 0 0 0 0 0
0 0 0 0 0 0 0 0 0 0 0 0 0 -0 -0 0 0 0 0 0 0 0
0 0 0 0 0 0 0 0 0 0 0 0 0 0 0 0 0 0 0 0 0 0
0 0 0 0 0 0 0 0 0 0 -0 -0 0 0 0 0 0 0 0 0 0 0
0 0 0 0 0 0 0 0 0 0 0 0 -0 -0 -0 0 0 0 0 0 0 0
0 0 0 0 0 0 0 0 0 0 0 0 0 -0 -0 -0 0 0 0 -0 0 0
Wind_Speed_500mb
72 79 81 77 72 69 65 60 55 53 59 60 61 59 57 52 44 44 46 53 51 44
71 70 64 58 56 57 55 53 54 59 51 48 48 49 51 61 59 57 54 53 57 57
73 72 69 69 70 66 62 56 54 54 54 52 52 54 57 57 63 65 65 65 72 71
63 59 51 49 46 44 48 58 70 69 65 60 59 56 53 50 47 49 50 49 44 40
59 59 54 54 46 42 45 43 40 43 46 50 52 48 45 43 45 46 42 38 36 36
57 52 51 48 47 50 41 39 38 34 35 39 45 47 46 50 48 42 39 37 32 30
54 51 52 50 49 46 40 39 39 35 36 35 36 36 39 39 42 40 37 32 30 28
53 55 56 56 51 46 40 41 37 37 34 35 34 34 36 37 36 37 36 33 31 27
56 63 59 57 52 45 47 35 38 32 31 34 33 29 26 27 31 32 35 36 33 24
58 60 61 59 54 51 42 37 37 27 27 29 26 22 26 29 32 33 33 36 34 36
61 62 67 65 53 43 42 36 33 29 27 31 30 28 25 26 27 31 33 31 30 34
64 65 65 64 60 52 41 36 32 30 30 28 31 27 22 25 27 30 29 30 32 32
62 61 58 59 51 45 34 31 30 30 31 32 30 27 22 24 25 22 20 26 29 35
60 55 60 52 48 46 36 27 24 24 20 16 13 16 25 30 24 24 20 27 34 37
Wind_Direction_500mb
307 304 301 299 293 287 282 278 271 269 266 263 264 259 260 259 260 259 260 263 265 266
311 308 304 296 292 293 293 283 275 268 259 260 260 258 260 261 260 259 262 263 263 263
313 305 297 290 288 284 278 272 264 260 260 261 264 268 271 272 267 271 268 269 271 269
317 318 313 308 306 304 295 282 270 267 265 260 259 265 267 267 263 263 267 263 264 267
323 318 319 315 310 307 303 294 290 276 265 258 258 255 255 257 261 262 259 260 254 255
327 327 325 326 316 310 309 302 295 285 274 264 262 263 262 256 256 255 259 253 251 250
330 331 327 321 319 313 304 301 295 291 283 278 268 258 256 253 247 246 251 245 249 241
336 335 328 325 319 318 305 304 291 287 281 279 270 268 254 252 248 242 240 240 241 240
337 333 330 328 325 314 312 301 302 292 285 274 267 264 250 248 248 242 239 241 241 236
337 332 336 330 327 323 314 303 303 288 283 276 272 260 249 245 244 242 242 243 236 220
340 339 340 337 331 324 317 309 293 294 288 272 265 258 248 246 245 241 237 232 227 216
343 342 341 341 331 326 314 304 299 291 282 278 266 258 252 231 226 231 224 227 215 199
343 346 349 345 346 342 326 305 302 292 287 278 265 261 231 214 216 203 213 210 198 189
346 352 352 347 354 355 347 331 315 307 305 267 246 225 204 197 192 195 186 175 172 164
Wind_Speed_850mb
72 79 81 77 72 69 65 60 55 53 59 60 61 59 57 52 44 44 46 53 51 44
71 70 64 58 56 57 55 53 54 59 51 48 48 49 51 61 59 57 54 53 57 57
73 72 69 69 70 66 62 56 54 54 54 52 52 54 57 57 63 65 65 65 72 71
63 59 51 49 46 44 48 58 70 69 65 60 59 56 53 50 47 49 50 49 44 40
59 59 54 54 46 42 45 43 40 43 46 50 52 48 45 43 45 46 42 38 36 36
57 52 51 48 47 50 41 39 38 34 35 39 45 47 46 50 48 42 39 37 32 30
54 51 52 50 49 46 40 39 39 35 36 35 36 36 39 39 42 40 37 32 30 28
53 55 56 56 51 46 40 41 37 37 34 35 34 34 36 37 36 37 36 33 31 27
56 63 59 57 52 45 47 35 38 32 31 34 33 29 26 27 31 32 35 36 33 24
58 60 61 59 54 51 42 37 37 27 27 29 26 22 26 29 32 33 33 36 34 36
61 62 67 65 53 43 42 36 33 29 27 31 30 28 25 26 27 31 33 31 30 34
64 65 65 64 60 52 41 36 32 30 30 28 31 27 22 25 27 30 29 30 32 32
62 61 58 59 51 45 34 31 30 30 31 32 30 27 22 24 25 22 20 26 29 35
60 55 60 52 48 46 36 27 24 24 20 16 13 16 25 30 24 24 20 27 34 37
Wind_Direction_850mb
307 304 301 299 293 287 282 278 271 269 266 263 264 259 260 259 260 259 260 263 265 266
311 308 304 296 292 293 293 283 275 268 259 260 260 258 260 261 260 259 262 263 263 263
313 305 297 290 288 284 278 272 264 260 260 261 264 268 271 272 267 271 268 269 271 269
317 318 313 308 306 304 295 282 270 267 265 260 259 265 267 267 263 263 267 263 264 267
323 318 319 315 310 307 303 294 290 276 265 258 258 255 255 257 261 262 259 260 254 255
327 327 325 326 316 310 309 302 295 285 274 264 262 263 262 256 256 255 259 253 251 250
330 331 327 321 319 313 304 301 295 291 283 278 268 258 256 253 247 246 251 245 249 241
336 335 328 325 319 318 305 304 291 287 281 279 270 268 254 252 248 242 240 240 241 240
337 333 330 328 325 314 312 301 302 292 285 274 267 264 250 248 248 242 239 241 241 236
337 332 336 330 327 323 314 303 303 288 283 276 272 260 249 245 244 242 242 243 236 220
340 339 340 337 331 324 317 309 293 294 288 272 265 258 248 246 245 241 237 232 227 216
343 342 341 341 331 326 314 304 299 291 282 278 266 258 252 231 226 231 224 227 215 199
343 346 349 345 346 342 326 305 302 292 287 278 265 261 231 214 216 203 213 210 198 189
346 352 352 347 354 355 347 331 315 307 305 267 246 225 204 197 192 195 186 175 172 164